Weather History for Hereford, TX

Change the Weather History Date:

Saturday, December 8, 2012

  Actual Average (KAMA) Record (KAMA)
Temperature  
Mean Temperature 46 °F 38 °F  
Max Temperature 64 °F 50 °F 77 °F (1984)
Min Temperature 28 °F 25 °F -3 °F (2005)
Degree Days  
Heating Degree Days 19 27  
Month to date heating degree days 211  
Since 1 July heating degree days 1055  
Cooling Degree Days 0 0  
Month to date cooling degree days 0  
Year to date cooling degree days 1399  
Moisture  
Dew Point 27 °F    
Average Humidity 58    
Maximum Humidity 100    
Minimum Humidity 22    
Precipitation  
Precipitation 0.00 in 0.02 in 0.57 in (1899)
Month to date precipitation 0.16  
Year to date precipitation 19.81  
Snow  
Snow 0.00 in 0.20 in 3.00 in (1951)
Month to date snowfall 1.0  
Since 1 July snowfall 3.7  
Snow Depth -    
Sea Level Pressure  
Sea Level Pressure 29.83 in    
Wind  
Wind Speed 13 mph (WSW)    
Max Wind Speed 30 mph    
Max Gust Speed 38 mph    
Visibility 8 miles    
Events Fog    
T = Trace of Precipitation, MM = Missing Value Source: NWS Daily Summary

Daily Weather History Graph

Daily Weather History Graph

Search for Another Location

Airport:

Trip Planner

Search our weather history database for the weather conditions in past years. The results will help you decide how hot, cold, wet, or windy it might be!

Date:

Astronomy

Dec. 08, 2012 Rise Set
Actual Time 7:44 AM CST 5:38 PM CST
Civil Twilight 7:16 AM CST 6:05 PM CST
Nautical Twilight 6:45 AM CST 6:37 PM CST
Astronomical Twilight 6:14 AM CST 7:08 PM CST
Moon 2:22 AM CST (12/8) 2:00 PM CST (12/8)
Length of Visible Light 10h 48m
Length of Day
9h 53m
Waning Crescent, 28% of the Moon is Illuminated
Dec 8
Waning Crescent
Dec 13
New
Dec 19
First Quarter
Dec 28
Full
Jan 4
Last Quarter

Hourly Weather History & Observations

Time (CST) Temp. Windchill Dew Point Humidity Pressure Visibility Wind Dir Wind Speed Gust Speed Precip Events Conditions
12:15 AM 33.8 °F 22.5 °F 26.6 °F 75% 29.88 in 10.0 mi NE 19.6 mph - N/A   Clear
12:35 AM 33.8 °F 22.5 °F 26.6 °F 75% 29.89 in 10.0 mi NE 19.6 mph - N/A   Clear
12:55 AM 32.0 °F 25.6 °F 26.6 °F 80% 29.89 in 10.0 mi NE 6.9 mph - N/A   Clear
1:15 AM 32.0 °F - 26.6 °F 80% 29.89 in 10.0 mi North - - N/A   Clear
1:35 AM 35.6 °F 26.2 °F 28.4 °F 75% 29.89 in 10.0 mi NE 15.0 mph - N/A   Clear
1:55 AM 32.0 °F 24.2 °F 26.6 °F 80% 29.90 in 10.0 mi NNE 9.2 mph - N/A   Clear
2:15 AM 32.0 °F 24.2 °F 26.6 °F 80% 29.90 in 10.0 mi NE 9.2 mph - N/A   Clear
2:55 AM 32.0 °F 25.6 °F 24.8 °F 75% 29.91 in 10.0 mi NNE 6.9 mph - N/A   Clear
3:15 AM 32.0 °F 24.2 °F 24.8 °F 75% 29.90 in 10.0 mi NE 9.2 mph - N/A   Clear
3:35 AM 32.0 °F 24.2 °F 26.6 °F 80% 29.91 in 10.0 mi NE 9.2 mph 19.6 mph N/A   Clear
3:55 AM 30.2 °F 23.4 °F 24.8 °F 80% 29.91 in 10.0 mi NE 6.9 mph - N/A   Clear
4:15 AM 32.0 °F 25.6 °F 26.6 °F 80% 29.90 in 10.0 mi ENE 6.9 mph - N/A   Clear
4:35 AM 30.2 °F 23.4 °F 26.6 °F 86% 29.90 in 10.0 mi East 6.9 mph - N/A   Clear
5:15 AM 28.4 °F - 24.8 °F 86% 29.90 in 10.0 mi Calm Calm - N/A   Clear
5:35 AM 30.2 °F 25.4 °F 26.6 °F 86% 29.91 in 10.0 mi NNE 4.6 mph - N/A   Clear
5:55 AM 28.4 °F 21.2 °F 26.6 °F 93% 29.90 in 5.0 mi NE 6.9 mph - N/A   Clear
6:15 AM 30.2 °F 25.4 °F 28.4 °F 93% 29.91 in 0.2 mi NE 4.6 mph - N/A Fog Light Freezing Fog
6:35 AM 32.0 °F 27.5 °F 30.2 °F 93% 29.91 in 0.2 mi East 4.6 mph - N/A Fog Light Freezing Fog
6:55 AM 32.0 °F - 30.2 °F 93% 29.92 in 0.2 mi North - - N/A Fog Fog
7:15 AM 32.0 °F - 30.2 °F 93% 29.93 in 0.2 mi North - - N/A Fog Fog
7:35 AM 32.0 °F - 32.0 °F 100% 29.93 in 0.2 mi North - - N/A Fog Fog
7:55 AM 32.0 °F - 32.0 °F 100% 29.92 in 0.2 mi Calm Calm - N/A Fog Fog
8:15 AM 32.0 °F 27.5 °F 32.0 °F 100% 29.93 in 0.2 mi SE 4.6 mph - N/A Fog Fog
8:35 AM 33.8 °F - 32.0 °F 93% 29.93 in 0.2 mi North - - N/A Fog Fog
8:55 AM 33.8 °F 24.8 °F 32.0 °F 93% 29.92 in 0.2 mi East 12.7 mph 24.2 mph N/A Fog Fog
9:15 AM 33.8 °F 27.0 °F 33.8 °F 100% 29.93 in 0.5 mi South 8.1 mph 18.4 mph N/A Fog Fog
9:35 AM 33.8 °F 26.4 °F 33.8 °F 100% 29.91 in 1.8 mi South 9.2 mph - N/A   Overcast
9:55 AM 33.8 °F - 33.8 °F 100% 29.93 in 7.0 mi North - - N/A   Overcast
10:15 AM 35.6 °F 28.0 °F 33.8 °F 93% 29.93 in 10.0 mi SSW 10.4 mph - N/A   Scattered Clouds
10:35 AM 37.4 °F - 35.6 °F 93% 29.92 in 10.0 mi North - - N/A   Clear
10:55 AM 42.8 °F - 32.0 °F 66% 29.91 in 10.0 mi North - - N/A   Clear
11:15 AM 44.6 °F 38.1 °F 32.0 °F 61% 29.90 in 10.0 mi SW 13.8 mph - N/A   Clear
11:35 AM 48.2 °F - 32.0 °F 54% 29.89 in 10.0 mi SW 15.0 mph 19.6 mph N/A   Clear
11:55 AM 50.0 °F - 32.0 °F 50% 29.88 in 10.0 mi SW 12.7 mph 21.9 mph N/A   Clear
12:15 PM 51.8 °F - 30.2 °F 44% 29.86 in 10.0 mi WSW 12.7 mph 18.4 mph N/A   Clear
12:35 PM 53.6 °F - 30.2 °F 41% 29.84 in 10.0 mi WSW 12.7 mph 20.7 mph N/A   Clear
12:55 PM 55.4 °F - 30.2 °F 38% 29.83 in 10.0 mi SW 15.0 mph 23.0 mph N/A   Clear
1:15 PM 55.4 °F - 30.2 °F 38% 29.81 in 10.0 mi SW 12.7 mph 19.6 mph N/A   Clear
1:35 PM 57.2 °F - 30.2 °F 36% 29.79 in 10.0 mi SW 16.1 mph 23.0 mph N/A   Clear
1:55 PM 60.8 °F - 30.2 °F 31% 29.77 in 10.0 mi WSW 16.1 mph 24.2 mph N/A   Clear
2:15 PM 62.6 °F - 28.4 °F 27% 29.75 in 10.0 mi SW 18.4 mph 26.5 mph N/A   Clear
2:35 PM 62.6 °F - 28.4 °F 27% 29.74 in 10.0 mi SW 20.7 mph 26.5 mph N/A   Clear
2:55 PM 64.4 °F - 26.6 °F 24% 29.73 in 10.0 mi WSW 20.7 mph 34.5 mph N/A   Clear
3:15 PM 64.4 °F - 24.8 °F 22% 29.73 in 10.0 mi WSW 29.9 mph 35.7 mph N/A   Clear
3:35 PM 64.4 °F - 26.6 °F 24% 29.72 in 10.0 mi WSW 24.2 mph 33.4 mph N/A   Clear
3:55 PM 64.4 °F - 26.6 °F 24% 29.72 in 10.0 mi West 26.5 mph 38.0 mph N/A   Clear
4:15 PM 64.4 °F - 26.6 °F 24% 29.72 in 10.0 mi WSW 21.9 mph 31.1 mph N/A   Clear
4:35 PM 64.4 °F - 26.6 °F 24% 29.72 in 10.0 mi WSW 20.7 mph 31.1 mph N/A   Clear
4:55 PM 64.4 °F - 26.6 °F 24% 29.72 in 10.0 mi West 25.3 mph 33.4 mph N/A   Clear
5:15 PM 62.6 °F - 24.8 °F 24% 29.72 in 10.0 mi North - - N/A   Clear
5:35 PM 60.8 °F - 26.6 °F 27% 29.72 in 10.0 mi SW 10.4 mph 19.6 mph N/A   Clear
5:55 PM 59.0 °F - 26.6 °F 29% 29.72 in 10.0 mi SSW 9.2 mph - N/A   Clear
6:15 PM 51.8 °F - 26.6 °F 38% 29.73 in 10.0 mi SSW 6.9 mph - N/A   Clear
6:35 PM 50.0 °F - 24.8 °F 37% 29.74 in 10.0 mi North - - N/A   Clear
6:55 PM 50.0 °F - 26.6 °F 40% 29.74 in 7.0 mi SSW 8.1 mph - N/A   Clear
7:15 PM 48.2 °F - 26.6 °F 43% 29.75 in 7.0 mi WSW 12.7 mph - N/A   Clear
7:35 PM 46.4 °F 42.4 °F 24.8 °F 43% 29.75 in 10.0 mi SW 8.1 mph - N/A   Clear
7:55 PM 50.0 °F - 24.8 °F 37% 29.75 in 10.0 mi West 15.0 mph - N/A   Clear
8:15 PM 50.0 °F - 23.0 °F 35% 29.75 in 10.0 mi West 16.1 mph - N/A   Clear
8:35 PM 50.0 °F - 23.0 °F 35% 29.75 in 10.0 mi SW 11.5 mph - N/A   Clear
8:55 PM 50.0 °F - 23.0 °F 35% 29.75 in 10.0 mi WSW 13.8 mph - N/A   Clear
9:15 PM 50.0 °F - 23.0 °F 35% 29.75 in 10.0 mi WSW 15.0 mph - N/A   Clear
9:35 PM 50.0 °F - 23.0 °F 35% 29.75 in 10.0 mi WSW 16.1 mph - N/A   Clear
9:55 PM 50.0 °F - 21.2 °F 32% 29.75 in 10.0 mi WSW 17.3 mph 21.9 mph N/A   Clear
10:15 PM 50.0 °F - 21.2 °F 32% 29.76 in 10.0 mi North - - N/A   Clear
10:35 PM 50.0 °F - 21.2 °F 32% 29.76 in 10.0 mi North - - N/A   Clear
10:55 PM 46.4 °F - 21.2 °F 37% 29.76 in 10.0 mi North - - N/A   Clear
11:15 PM 44.6 °F 35.7 °F 21.2 °F 39% 29.76 in 10.0 mi WNW 24.2 mph - N/A   Clear
11:35 PM 46.4 °F 39.5 °F 21.2 °F 37% 29.75 in 10.0 mi West 17.3 mph 25.3 mph N/A   Clear
11:55 PM 46.4 °F - 21.2 °F 37% 29.75 in 10.0 mi North - - N/A   Clear